Bow Valley, Alberta

2:25 PM MDT on October 21, 2017 (GMT -0600)
Bow Valley

Weather History for CWXA - January, 2013

Change the Weather History Date:

Thursday, January 17, 2013

  Actual Average Record
Temperature  
Mean Temperature 44 °F -  
Max Temperature 49 °F - - ()
Min Temperature 38 °F - - ()
Degree Days  
Heating Degree Days 22    
Moisture  
Dew Point 18 °F    
Average Humidity 34    
Maximum Humidity 47    
Minimum Humidity 14    
Precipitation  
Precipitation 0.00 in - - ()
Sea Level Pressure  
Sea Level Pressure 29.96 in    
Wind  
Wind Speed 12 mph ()    
Max Wind Speed 24 mph    
Max Gust Speed 48 mph    
T = Trace of Precipitation, MM = Missing Value Source: Averaged Metar Reports

Daily Weather History Graph

Daily Weather History Graph

Search for Another Location

Airport or City:

Trip Planner

Search our weather history database for the weather conditions in past years. The results will help you decide how hot, cold, wet, or windy it might be!

Date:

Astronomy

Jan. 17, 2013 Rise Set
Actual Time 8:35 AM MST 5:06 PM MST
Civil Twilight 7:57 AM MST 5:44 PM MST
Nautical Twilight 7:16 AM MST 6:25 PM MST
Astronomical Twilight 6:36 AM MST 7:04 PM MST
Moon 10:54 AM MST (1/17) No Moon Set
Length of Visible Light 9h 46m
Length of Day
8h 31m
Waxing Crescent, 38% of the Moon is Illuminated
Jan 17
Waxing Crescent
Jan 18
First Quarter
Jan 26
Full
Feb 3
Last Quarter
Feb 10
New

Hourly Weather History & Observations

Time (MST) Temp. Windchill Dew Point Humidity Pressure Visibility Wind Dir Wind Speed Gust Speed Precip Events Conditions
12:00 AM 39.4 °F 33.8 °F 17.6 °F 41% 30.14 in - WSW 8.1 mph - N/A   Unknown
1:00 AM 41.4 °F 34.7 °F 18.7 °F 40% 30.12 in - West 11.5 mph 23.0 mph N/A   Unknown
2:00 AM 40.3 °F 33.9 °F 20.3 °F 45% 30.12 in - WSW 10.4 mph 21.9 mph N/A   Unknown
3:00 AM 41.0 °F 34.3 °F 21.6 °F 46% 30.11 in - WSW 11.5 mph 21.9 mph N/A   Unknown
4:00 AM 42.1 °F 36.1 °F 22.8 °F 46% 30.09 in - WSW 10.4 mph 17.3 mph N/A   Unknown
5:00 AM 42 °F - 23 °F 34% 30.08 in - WSW 9.2 mph - -  
5:00 AM 41.9 °F 36.3 °F 23.0 °F 47% 30.08 in - WSW 9.2 mph 21.9 mph N/A   Unknown
6:00 AM 43.3 °F 38.1 °F 22.3 °F 43% 30.08 in - WSW 9.2 mph 23.0 mph N/A   Unknown
7:00 AM 43.9 °F 37.2 °F 22.1 °F 42% 30.04 in - WSW 13.8 mph 24.2 mph N/A   Unknown
8:00 AM 44.6 °F 37.4 °F 22.1 °F 41% 30.03 in - West 16.1 mph 33.4 mph N/A   Unknown
9:00 AM 44.4 °F 37.2 °F 21.7 °F 41% 30.02 in - West 16.1 mph 28.8 mph N/A   Unknown
10:00 AM 45.7 °F 37.4 °F 20.7 °F 37% 30.00 in - West 23.0 mph 36.8 mph N/A   Unknown
11:00 AM 46 °F - 21 °F 24% 30.04 in - WSW 16.1 mph - -  
12:00 PM 46.0 °F 41.4 °F 21.6 °F 38% 29.99 in - WSW 9.2 mph - N/A   Unknown
1:00 PM 48.4 °F - 19.8 °F 32% 29.93 in - WSW 13.8 mph 27.6 mph N/A   Unknown
2:00 PM 48.4 °F - 18.7 °F 31% 29.86 in - WSW 20.7 mph 35.7 mph N/A   Unknown
3:00 PM 46.9 °F - 17.6 °F 31% 29.81 in - West 24.2 mph 35.7 mph N/A   Unknown
4:00 PM 47.3 °F - 17.4 °F 30% 29.82 in - WSW 19.6 mph 48.3 mph N/A   Unknown
5:00 PM 46 °F - 14 °F 15% 29.86 in - West 19.6 mph - -  
5:00 PM 46.2 °F 38.7 °F 13.8 °F 27% 29.86 in - West 19.6 mph 36.8 mph N/A   Unknown
6:00 PM 45.7 °F 38.8 °F 13.6 °F 28% 29.86 in - West 16.1 mph 27.6 mph N/A   Unknown
7:00 PM 45.3 °F 37.1 °F 12.2 °F 26% 29.80 in - West 21.9 mph 39.1 mph N/A   Unknown
8:00 PM 44.6 °F 37.4 °F 12.7 °F 28% 29.81 in - West 16.1 mph 31.1 mph N/A   Unknown
9:00 PM 44.8 °F 39.4 °F 12.4 °F 27% 29.84 in - West 10.4 mph 24.2 mph N/A   Unknown
10:00 PM 44.6 °F 38.4 °F 12.7 °F 28% 29.82 in - West 12.7 mph 26.5 mph N/A   Unknown
11:00 PM 44 °F - 11 °F 14% 29.79 in - West 19.6 mph - -  
11:00 PM 44.2 °F 36.2 °F 11.3 °F 26% 29.79 in - West 19.6 mph 34.5 mph N/A   Unknown